Showing default

ANGELS, 44876

Orbit data source: Space-Track

ANGELS, 44876 is a payload satellite owned by CNES (FR) in SSO that was launched on Wed, 18 Dec 2019 UTC via a SOYUZ-ST-A launch vehicle from the French Guiana (FRGUI). Payload-class satellites include a variety of spacecraft equipped with specific instruments for various scientific and technological missions. These include communications satellites like Starlink; space stations such as the ISS; scientific satellites like the Hubble; Earth observation satellites from companies like Planet Labs, Umbra, and HawkEye 360; GPS; miniature CubeSats for education and research; and military/defense satellites.

Loading next visibility...
Identifier
44876, 2019-092D
Orbit
SSO
Last TLE update
20 hours ago
Origin
Manufacturer
Hemeria
Mission
Non-operational Civil Communications
Bus & Motor
CUBESAT 12U, Unknown motor
Mass
27 kg wet, 27 kg dry
Launch date (UTC)
2019-12-18 (6 years ago)
Launch vehicle
SOYUZ-ST-A
Launch site
French Guiana (FRGUI)
Object type
Payload
Rocket body
Debris
Shape & HBR
Box + 2 Pan, Unknown HBR
Radar Cross Section
0.126 m², Medium (>0.1 m² and < 1m²)

Expand to show TLE details & history

TLE from 20 hours ago
0 ANGELS
1 44876U 19092D   25191.53745066  .00015587  00000-0  32430-3 0  9995
2 44876  97.4534  30.7776 0006796  27.8443 332.3168 15.45694984308922
Epoch: 2025-07-10T12:53Z
TLE epoch observation values (Epoch: 2025-07-10T12:53:55.737Z)
Latitude
-0.00003°
Longitude
-91.40694°
Altitude
428.363 km
Speed
7.657 km/s
True Right ascension
02h 03m 06s
True Declination
0° 00' 00"
Sunlit
Object was in daylight at epoch
Visualization orbit readout
Latitude
-82.5865°
Longitude
-1.45969°
Altitude
459.588 km
Speed
7.635 km/s
Apparent Right ascension
08h 51m 24s
Apparent Declination
-61° 59' 29"
Sunlit
Object is in daylight
Visualization observer readout
Local Sidereal Time
21:00:06
Azimuth
177.286° S
Elevation
-67.885°
Doppler factor
1
Orbital elements
Apogee altitude
430.895 km
Perigee altitude
421.646 km
Semi-major axis
6,804.407 km
Eccentricity
0.00068
Inclination
97.4534°
RAAN
30.7776°
Arg. of periapsis
27.8443°
True anomaly
Unknown
Mean anomaly
332.3168°
Eccentric anomaly
Unknown
Mean motion
3.86685 °/min
Orbital period
93.1 mins
BSTAR
0.0003243
Loading maneuver chart data...
Loading SW <> Apogee altitude chart data...
Loading historical data...
Loading historical data...
Loading historical data...
Loading historical data...
Loading historical data...
Loading historical data...
Loading historical data...

ANGELS Visibility forecast

Observer location: undefined°, undefined°

Span
Click to sort rows by Start time (UTC) header in descending order
Start Az.
Max El. time (UTC)
Max El. Az.
Max El.
End time (UTC)
End Az.
4 mins2025-07-12 02:45:31.011Z329.546° NNW2025-07-12 02:46:31.011Z302.28° NW24.707°2025-07-12 02:49:31.011Z229.101° WSW
|